Location: Most
(50.5133°N, 13.6207°E)
Time: 14:49:42
(UTC+01:00)

ISS - Visible Passes

Search period start: 20 November 2017 00:00
Search period end: 30 November 2017 00:00
Orbit: 402 x 407 km, 51.6° (Epoch: 21 November)

Date Brightness Start Highest point End Pass type
(mag) Time Alt. Az. Time Alt. Az. Time Alt. Az.
28 Nov -1.7 18:16:10 10° SSW 18:17:35 17° S 18:17:35 17° S visible
29 Nov -1.6 17:24:55 10° SSE 17:26:30 13° SE 17:27:28 12° ESE visible
29 Nov -1.1 18:59:13 10° SW 19:00:07 17° SW 19:00:07 17° SW visible
